Miscellaneous Local Product
Issued by NWS Hastings, NE

Home | Current Version | Previous Version | Text Only | Print | Product List | Glossary On
Versions: 1 2 3 4 5 6 7 8 9 10 11 12 13 14 15 16 17 18 19 20 21 22 23 24 25 26 27 28 29 30 31 32 33 34 35 36 37 38 39 40 41 42 43 44 45 46 47 48 49 50
721
AXUS43 KGID 040202
MISGRI

GID CWA HOURLY WEATHER ROUNDUP
NATIONAL WEATHER SERVICE HASTINGS NE
800 PM CST SAT DEC 03 2016

NOTE: "FAIR" INDICATES FEW OR NO CLOUDS BELOW 12,000 FEET WITH NO
SIGNIFICANT WEATHER AND/OR OBSTRUCTIONS TO VISIBILITY.

...SOUTH CENTRAL NEBRASKA...

CITY           SKY/WX    TMP DP  RH WIND       PRES   REMARKS
GRAND ISLAND   CLOUDY    32  32 100 SE8       30.06F FOG     WCI  25
HASTINGS       CLOUDY    32  32 100 SE5       30.07S FOG     WCI  27
KEARNEY        CLOUDY    32  28  86 S7        30.05S WCI  26
ORD            CLOUDY    33  29  85 S8        30.02S WCI  26
YORK           LGT SNOW  32  32 100 CALM      30.08S
AURORA         CLOUDY    32  32 100 CALM      30.07S FOG
LEXINGTON      CLOUDY    33  31  93 S8        30.02S WCI  25
HOLDREGE       CLOUDY    32  31  96 S9        30.04S WCI  24
HEBRON         LGT SNOW  32  32 100 CALM      30.08F

...NEBRASKA PANHANDLE...

CITY           SKY/WX    TMP DP  RH WIND       PRES   REMARKS
CHADRON        CLOUDY    29  15  56 W8        29.97R WCI  21
ALLIANCE       CLOUDY    34  19  54 W10       29.96S WCI  26
SCOTTSBLUFF    CLOUDY    35  14  42 W13       30.00S WCI  26
SIDNEY         CLOUDY    28  14  55 NW9       30.01R WCI  19

...WESTERN AND NORTH CENTRAL NEBRASKA...

CITY           SKY/WX    TMP DP  RH WIND       PRES   REMARKS
VALENTINE      CLOUDY    28  18  66 W7        29.94S WCI  21
AINSWORTH      PTCLDY    30  19  62 SW6       29.95S WCI  24
ONEILL         CLOUDY    34  32  93 S13       29.99S WCI  25
BROKEN BOW     CLOUDY    34  31  88 S13       29.99F WCI  25
IMPERIAL       PTCLDY    34  25  69 W6        29.99R WCI  29
NORTH PLATTE   PTCLDY    34  30  85 S6        29.99S WCI  29
MCCOOK         CLOUDY    35  32  88 S7        30.02R WCI  29

...EASTERN NEBRASKA...

CITY           SKY/WX    TMP DP  RH WIND       PRES   REMARKS
NORFOLK        CLOUDY    32  31  96 S12       30.06F WCI  23
SO SIOUX CITY  LGT SNOW  34  33  96 SE10      30.10F FOG     WCI  26
TEKAMAH        LGT SNOW  32  32 100 SE6       30.12F VSB 1   WCI  26
COLUMBUS       CLOUDY    34  30  86 SE8       30.09S WCI  27
ALBION         CLOUDY    33  32  97 S10       30.05F FOG     WCI  24
OMAHA EPPLEY   LGT SNOW  34  30  85 SE5       30.12F FOG     WCI  30
MILLARD        LGT SNOW  33  32  95 CALM      30.11F
LINCOLN        LGT SNOW  33  32  96 E3        30.11S FOG
NEBRASKA CITY  LGT RAIN  34  34 100 SE7       30.10F WCI  28
BEATRICE       LGT RAIN  34  33  98 SE7       30.07F WCI  28
FALLS CITY     LGT RAIN  38  36  92 SE6       30.11F WCI  33

...NORTHERN KANSAS...

CITY           SKY/WX    TMP DP  RH WIND       PRES   REMARKS
GOODLAND       CLEAR     28  26  92 S10       29.99R WCI  19
HILL CITY      CLOUDY    32  31  96 SW5       30.06S FOG     WCI  27
NORTON         CLOUDY    34  30  86 S3        30.03F
PHILLIPSBURG   CLOUDY    32  32 100 CALM      30.07R FOG
SMITH CENTER   MIX PCPN  30  30 100 SE3       30.07S
BELOIT         CLOUDY    32  32 100 CALM      30.08S
HAYS           LGT RAIN  33  32  96 N3        30.07S FOG
RUSSELL        RAIN      36  36 100 CALM      30.06R FOG
CONCORDIA      LGT RAIN  36  36 100 S6        30.08S FOG     WCI  31
SALINA         LGT RAIN  40  39  97 SE6       30.09S FOG
TOPEKA         CLOUDY    42  37  82 CALM      30.12R



USA.gov is the U.S. government's official web portal to all federal, state and local government web resources and services.